Voltar ao catálogo

FENGYUN 1C DEB

AtivoSSO
NORAD 29795·DEBRIS·🇨🇳 China

Lançado May 10, 1999 de Taiyuan Satellite Launch Center

Loading…

Próximas Passagens (próximas 24 horas)

TLE

AtualizadoSource: Space-Track

Época: Sep 11, 2026, 20:25 UTC

1 29795U 99025CM  26254.85073509  .00000103  00000-0  10687-3 0  9992
2 29795  98.9062  18.4109 0110880 247.5005 241.1867 13.93019943998672

Acompanhe FENGYUN 1C DEB em tempo real com AllMySat

Download on the App Store